Find Starlink 11572

NORAD ID: 62990 Int'l Des: 2025-031 Owner: SPXS Country: US Constellation: starlink operational
LEOCIRCULAR

Live-Position

3D-Globus wird geladen...

Über Starlink 11572

Beschreibung wird geladen...

Nächste Überflüge

Passes for default location (London). Set your location on the main map for personalized predictions.

Höhenverlauf

Loading altitude history...

Zweizeiliger Elementsatz

1 62990U 25031K 26125.71878807 .00272367 00000-0 20501-2 0 9996
2 62990 42.9990 17.5206 0001927 259.5366 100.5285 15.70923315 71710
Epoch: 5. Mai 2026 • Age: 13 hours

Aktueller Status

Höhe 366.6 km
Geschwindigkeit 7.69 km/s
Subsatellitenpunkt -41.00°S, 59.94°W
Startdatum 11. Feb. 2025
Alter 1.2 years
Typ internet

Technische Details

Klassifizierung Payload
Masse 960.00 kg
Trockenmasse 910.00 kg
Gesamtmasse 960.00 kg
Länge 0.30 m
Durchmesser 4.10 m
Spannweite 29.00 m
Form Box + pan
Hersteller SPXS
Bus-Typ Starlink V2MD
Phasenstatus In Orbit
Besitzer/Staat SPXS/US

Most Searched